Beaufort MCAS, SC

12:28 AM EDT on August 17, 2017 (GMT -0400)
Beaufort Marine Corps Air Station

Weather History for KNBC - October, 2014

Change the Weather History Date:

Thursday, October 9, 2014

  Actual Average Record
Temperature  
Mean Temperature 72 °F -  
Max Temperature 81 °F 78 °F 90 °F (1939)
Min Temperature 64 °F 60 °F 42 °F (2000)
Cooling Degree Days 7    
Growing Degree Days 22 (Base 50)    
Moisture  
Dew Point 64 °F    
Average Humidity 77    
Maximum Humidity 93    
Minimum Humidity 52    
Precipitation  
Precipitation 0.00 in - - ()
Sea Level Pressure  
Sea Level Pressure 30.11 in    
Wind  
Wind Speed 4 mph (East)    
Max Wind Speed 12 mph    
Max Gust Speed 17 mph    
Visibility 9 miles    
Events Fog    
Averages and records for this station are not official NWS values.
T = Trace of Precipitation, MM = Missing Value Source: NWS Daily Summary

Daily Weather History Graph

Daily Weather History Graph

Search for Another Location

Airport or City:

Trip Planner

Search our weather history database for the weather conditions in past years. The results will help you decide how hot, cold, wet, or windy it might be!

Date:

Astronomy

Oct. 09, 2014 Rise Set
Actual Time 7:22 AM EDT 6:57 PM EDT
Civil Twilight 6:57 AM EDT 7:21 PM EDT
Nautical Twilight 6:29 AM EDT 7:50 PM EDT
Astronomical Twilight 6:00 AM EDT 8:18 PM EDT
Moon 7:58 PM EDT (10/9) 8:31 AM EDT (10/9)
Length of Visible Light 12h 24m
Length of Day
11h 34m
Full, 98% of the Moon is Illuminated
Oct 9
Full
Oct 15
Last Quarter
Oct 23
New
Oct 30
First Quarter
Nov 6
Full

Hourly Weather History & Observations

Time (EDT) Temp. Heat Index Dew Point Humidity Pressure Visibility Wind Dir Wind Speed Gust Speed Precip Events Conditions
12:56 AM 73.0 °F - 69.1 °F 87% 30.07 in 10.0 mi WSW 5.8 mph - N/A   Clear
1:56 AM 72.0 °F - 68.0 °F 87% 30.07 in 10.0 mi WSW 5.8 mph - N/A   Clear
2:56 AM 71.1 °F - 68.0 °F 90% 30.07 in 10.0 mi Calm Calm - N/A   Clear
3:56 AM 71.1 °F - 68.0 °F 90% 30.07 in 10.0 mi Calm Calm - N/A   Clear
4:56 AM 68.0 °F - 64.9 °F 90% 30.08 in 10.0 mi West 3.5 mph - N/A   Clear
5:56 AM 66.9 °F - 64.9 °F 93% 30.09 in 10.0 mi SW 3.5 mph - N/A   Clear
6:22 AM 66.9 °F - 64.9 °F 93% 30.10 in 10.0 mi SW 4.6 mph - N/A   Scattered Clouds
6:56 AM 66.9 °F - 64.0 °F 90% 30.10 in 7.0 mi Calm Calm - N/A Fog Shallow Fog
7:56 AM 64.9 °F - 63.0 °F 93% 30.12 in 7.0 mi North 3.5 mph - N/A Fog Shallow Fog
7:58 AM 64.9 °F - 63.0 °F 93% 30.12 in 0.8 mi North 3.5 mph - N/A Fog Shallow Fog
8:05 AM 66.0 °F - 64.0 °F 93% 30.12 in 7.0 mi Calm Calm - N/A Fog Shallow Fog
8:56 AM 73.0 °F - 66.9 °F 81% 30.14 in 7.0 mi NNE 4.6 mph - N/A   Scattered Clouds
9:56 AM 75.9 °F - 63.0 °F 64% 30.14 in 10.0 mi ENE 5.8 mph - N/A   Mostly Cloudy
10:56 AM 79.0 °F - 64.0 °F 60% 30.15 in 10.0 mi ENE 8.1 mph - N/A   Mostly Cloudy
11:56 AM 80.1 °F 81.9 °F 64.9 °F 60% 30.15 in 7.0 mi East 8.1 mph 17.3 mph N/A   Mostly Cloudy
12:56 PM 80.1 °F 81.7 °F 64.0 °F 58% 30.14 in 10.0 mi East 9.2 mph - N/A   Mostly Cloudy
1:56 PM 80.1 °F 81.7 °F 64.0 °F 58% 30.13 in 10.0 mi ESE 9.2 mph - N/A   Clear
2:56 PM 80.1 °F 81.7 °F 64.0 °F 58% 30.11 in 10.0 mi East 11.5 mph - N/A   Mostly Cloudy
3:56 PM 80.1 °F 81.1 °F 61.0 °F 52% 30.11 in 10.0 mi East 6.9 mph - N/A   Mostly Cloudy
4:56 PM 80.1 °F 81.1 °F 61.0 °F 52% 30.10 in 10.0 mi ESE 5.8 mph - N/A   Mostly Cloudy
5:56 PM 77.0 °F - 60.1 °F 56% 30.10 in 10.0 mi SE 5.8 mph - N/A   Mostly Cloudy
6:56 PM 73.0 °F - 62.1 °F 68% 30.10 in 10.0 mi ESE 4.6 mph - N/A   Mostly Cloudy
7:56 PM 70.0 °F - 62.1 °F 76% 30.11 in 10.0 mi Calm Calm - N/A   Mostly Cloudy
8:56 PM 70.0 °F - 63.0 °F 78% 30.11 in 10.0 mi ESE 3.5 mph - N/A   Scattered Clouds
9:56 PM 70.0 °F - 64.0 °F 81% 30.12 in 10.0 mi Calm Calm - N/A   Clear
10:56 PM 70.0 °F - 64.0 °F 81% 30.12 in 10.0 mi Calm Calm - N/A   Clear
11:56 PM 66.0 °F - 63.0 °F 90% 30.13 in 10.0 mi Calm Calm - N/A   Clear